Weather Roundup
Issued by NWS Chicago, IL

Home | Current Version | Previous Version | Text Only | Print | Product List | Glossary Off
Versions: 1 2 3 4 5 6 7 8 9 10 11 12 13 14 15 16 17 18 19 20 21 22 23 24 25 26 27 28 29 30 31 32 33 34 35 36 37 38 39 40 41 42 43 44 45 46 47 48 49 50

618
NZUS59 KLOT 030012
HRRLOT

CHICAGO AREA WEATHER ROUNDUP
NATIONAL WEATHER SERVICE CHICAGO/ROMEOVILLE IL
600 PM CST FRI DEC 02 2016

NOTE: "FAIR" INDICATES FEW OR NO CLOUDS BELOW 12,000 FEET WITH NO
SIGNIFICANT WEATHER AND/OR OBSTRUCTIONS TO VISIBILITY.

* THESE STATIONS ARE NOT UNDER NWS QUALITY CONTROL. THEY ALSO MAY NOT
  REPORT WEATHER SUCH AS PRECIPITATION OR FOG.

ILZ005-006-012>014-019>023-030100-
NORTHEAST ILLINOIS

CITY           SKY/WX    TMP DP  RH WIND       PRES   REMARKS
OHARE          CLOUDY    37  25  61 N13       30.24S
6HR MIN TEMP:  37; 6HR MAX TEMP:  40;

MIDWAY         CLOUDY    38  25  59 W9        30.26R
6HR MIN TEMP:  38; 6HR MAX TEMP:  41;

AURORA         CLOUDY    36  28  73 NW7       30.27R
6HR MIN TEMP:  36; 6HR MAX TEMP:  40; 6HR PCP: TRACE;

LANSING*       CLOUDY    38  30  73 NW3       30.26R
JOLIET*        CLOUDY    38  32  77 NW5       30.28R
WAUKEGAN       CLOUDY    34  24  67 VRB6      30.25R WCI  29
6HR MIN TEMP:  34; 6HR MAX TEMP:  37;

DUPAGE AIRPORT CLOUDY    36  26  67 W10       30.25R
6HR MIN TEMP:  36; 6HR MAX TEMP:  39;

WHEELING       CLOUDY    36  25  64 N7        30.26S
6HR MIN TEMP:  36; 6HR MAX TEMP:  39;

KANKAKEE*      CLOUDY    38  32  79 W5        30.28R
MORRIS*        CLOUDY    37  32  82 CALM      30.27R
LEWIS AIRPORT* CLOUDY    37  32  84 NW9       30.27R
NORTHERLY ISL    N/A     38  26  62 NW9         N/A
$$

WIZ051-052-058>065-066-070>072-030100-
SOUTHEAST WISCONSIN

CITY           SKY/WX    TMP DP  RH WIND       PRES   REMARKS
MILWAUKEE      CLOUDY    35  23  61 W8        30.26R WCI  29
6HR MIN TEMP:  35; 6HR MAX TEMP:  37;

KENOSHA*       CLOUDY    34  24  67 NW5       30.26R WCI  30
RACINE*        CLOUDY    34  22  61 NW5       30.27R WCI  30
BURLINGTON     CLOUDY    33  25  72 CALM      30.26R
WAUKESHA       CLOUDY    30  23  74 NW8       30.27R WCI  23
WEST BEND      CLOUDY    32  27  80 NW6       30.25R WCI  26
$$

INZ001>003-010>013-019-020-030100-
NORTHWEST INDIANA

CITY           SKY/WX    TMP DP  RH WIND       PRES   REMARKS
GARY*          CLOUDY    39  28  65 W13       30.26R
MICHIGAN CITY* NOT AVBL
RENSSELAER*    NOT AVBL
VALPARAISO     CLOUDY    39  30  70 NW5       30.25R
$$

LMZ740>746-030100-
SOUTHERN LAKE MICHIGAN

STATION/POSITION TIME  SKY/WX   TEMP WIND        PRES    VSBY
                                AIR  DIR/SP/G
                 (UTC)          (F)  (DEG/KT/KT) (MB)    (MI)
HARRISON CRIB    2310            39  320/ 10/ 12   N/A
BURNHAM HARBOR   2315            38  300/  9/ 12   N/A
CALUMET HARBOR   NOT AVBL
BURNS HARBOR     2340            40  320/ 10/ 14 1024.4R
MICHIGAN CITY    2310            38  320/ 19/ 22   N/A
$$

ABBREVIATIONS USED IN REMARKS
   TC - TEMPERATURE IN CELSIUS
  WCI - WIND CHILL INDEX
   HX - HEAT INDEX
  VSB - VISIBILITY
$$




USA.gov is the U.S. government's official web portal to all federal, state and local government web resources and services.